| time (UTC) | temp F | wind direction | speed MPH | gust MPH | rain 1hr in | rain 24hr in | rain mn in | humidity % | barometer mb |
| 20260505065801 | 60 | 235 | 0.0 | 0.0 | 0.00 | 0.00 | 0.00 | 68 | 1011.5 |
| 20260505065258 | 60 | 234 | 0.0 | 0.0 | 0.00 | 0.00 | 0.00 | 67 | 1011.4 |
| 20260505064755 | 60 | 235 | 0.0 | 0.0 | 0.00 | 0.00 | 0.00 | 66 | 1011.5 |
| 20260505064252 | 60 | 235 | 0.0 | 0.0 | 0.00 | 0.00 | 0.00 | 66 | 1011.4 |
| 20260505063750 | 60 | 248 | 0.0 | 0.0 | 0.00 | 0.00 | 0.00 | 66 | 1011.5 |
| 20260505063246 | 60 | 241 | 0.0 | 1.0 | 0.00 | 0.00 | 0.00 | 66 | 1011.5 |
| 20260505062743 | 60 | 238 | 0.0 | 3.0 | 0.00 | 0.00 | 0.00 | 66 | 1011.5 |
| 20260505062240 | 61 | 231 | 2.0 | 3.0 | 0.00 | 0.00 | 0.00 | 65 | 1011.7 |
| 20260505061737 | 61 | 241 | 1.0 | 5.0 | 0.00 | 0.00 | 0.00 | 65 | 1012.1 |
| 20260505061235 | 61 | 224 | 2.0 | 5.0 | 0.00 | 0.00 | 0.00 | 65 | 1011.8 |
| 20260505060732 | 61 | 225 | 3.0 | 3.0 | 0.00 | 0.00 | 0.00 | 65 | 1011.9 |
| 20260505060229 | 60 | 238 | 2.0 | 2.0 | 0.00 | 0.00 | 0.00 | 65 | 1011.8 |
| 20260505055724 | 60 | 242 | 3.0 | 3.0 | 0.00 | 0.00 | 0.00 | 65 | 1011.8 |
| 20260505055221 | 60 | 219 | 4.0 | 5.0 | 0.00 | 0.00 | 0.00 | 66 | 1011.5 |
| 20260505054718 | 60 | 237 | 0.0 | 3.0 | 0.00 | 0.00 | 0.00 | 66 | 1011.8 |
| 20260505054216 | 60 | 241 | 0.0 | 2.0 | 0.00 | 0.00 | 0.00 | 67 | 1011.8 |
| 20260505053714 | 59 | 237 | 0.0 | 1.0 | 0.00 | 0.00 | 0.00 | 67 | 1011.9 |
| 20260505053210 | 59 | 263 | 0.0 | 0.0 | 0.00 | 0.00 | 0.00 | 67 | 1011.7 |
| 20260505052707 | 58 | 266 | 0.0 | 0.0 | 0.00 | 0.00 | 0.00 | 69 | 1011.7 |
| 20260505052204 | 59 | 267 | 0.0 | 0.0 | 0.00 | 0.00 | 0.00 | 70 | 1011.7 |
| 20260505051701 | 59 | 267 | 0.0 | 1.0 | 0.00 | 0.00 | 0.00 | 70 | 1011.7 |
| 20260505051159 | 59 | 268 | 1.0 | 1.0 | 0.00 | 0.00 | 0.00 | 68 | 1011.9 |
| 20260505050657 | 60 | 236 | 1.0 | 1.0 | 0.00 | 0.00 | 0.00 | 65 | 1011.6 |
| 20260505050155 | 60 | 236 | 0.0 | 0.0 | 0.00 | 0.00 | 0.00 | 65 | 1011.6 |
| 20260505041625 | 58 | 262 | 0.0 | 0.0 | 0.00 | 0.00 | 0.00 | 66 | 1011.5 |
| 20260505041122 | 59 | 262 | 0.0 | 0.0 | 0.00 | 0.00 | 0.00 | 65 | 1011.3 |
| 20260505040619 | 59 | 262 | 0.0 | 0.0 | 0.00 | 0.00 | 0.00 | 65 | 1011.4 |
| 20260505040116 | 59 | 262 | 0.0 | 0.0 | 0.00 | 0.00 | 0.00 | 65 | 1011.6 |
| 20260505035613 | 59 | 262 | 0.0 | 0.0 | 0.00 | 0.00 | 0.00 | 64 | 1011.3 |
| 20260505035109 | 59 | 263 | 0.0 | 0.0 | 0.00 | 0.00 | 0.00 | 63 | 1011.5 |
| 20260505034606 | 60 | 263 | 0.0 | 0.0 | 0.00 | 0.00 | 0.00 | 63 | 1011.5 |
| 20260505034103 | 60 | 264 | 0.0 | 0.0 | 0.00 | 0.00 | 0.00 | 62 | 1011.5 |
| 20260505033559 | 60 | 254 | 0.0 | 0.0 | 0.00 | 0.00 | 0.00 | 62 | 1011.4 |
| 20260505033058 | 61 | 265 | 0.0 | 1.0 | 0.00 | 0.00 | 0.00 | 59 | 1011.4 |
| 20260505032555 | 62 | 250 | 0.0 | 0.0 | 0.00 | 0.00 | 0.00 | 59 | 1011.5 |
| 20260505032051 | 62 | 283 | 1.0 | 2.0 | 0.00 | 0.00 | 0.00 | 58 | 1011.5 |
| 20260505031549 | 62 | 303 | 2.0 | 3.0 | 0.00 | 0.00 | 0.00 | 58 | 1011.5 |
| 20260505031045 | 62 | 252 | 1.0 | 2.0 | 0.00 | 0.00 | 0.00 | 58 | 1011.4 |
| 20260505030542 | 62 | 250 | 2.0 | 6.0 | 0.00 | 0.00 | 0.00 | 57 | 1011.3 |
| 20260505030038 | 63 | 252 | 0.0 | 5.0 | 0.00 | 0.00 | 0.00 | 57 | 1011.1 |
| 20260505025534 | 63 | 234 | 1.0 | 3.0 | 0.00 | 0.00 | 0.00 | 57 | 1011.3 |
| 20260505025033 | 63 | 249 | 1.0 | 6.0 | 0.00 | 0.00 | 0.00 | 56 | 1011.2 |
| 20260505024530 | 63 | 241 | 2.0 | 8.0 | 0.00 | 0.00 | 0.00 | 57 | 1010.9 |
| 20260505024027 | 63 | 160 | 4.0 | 8.0 | 0.00 | 0.00 | 0.00 | 56 | 1011.0 |
| 20260505023524 | 63 | 231 | 3.0 | 5.0 | 0.00 | 0.00 | 0.00 | 56 | 1010.9 |
| 20260505023021 | 63 | 164 | 3.0 | 7.0 | 0.00 | 0.00 | 0.00 | 56 | 1010.9 |
| 20260505022519 | 63 | 233 | 1.0 | 5.0 | 0.00 | 0.00 | 0.00 | 56 | 1011.0 |
| 20260505022016 | 63 | 122 | 3.0 | 7.0 | 0.00 | 0.00 | 0.00 | 56 | 1010.9 |
| 20260505021512 | 63 | 249 | 1.0 | 6.0 | 0.00 | 0.00 | 0.00 | 56 | 1010.9 |
| 20260505021009 | 64 | 237 | 3.0 | 5.0 | 0.00 | 0.00 | 0.00 | 56 | 1011.3 |
| 20260505020503 | 63 | 247 | 3.0 | 8.0 | 0.00 | 0.00 | 0.00 | 55 | 1011.1 |
| 20260505020000 | 63 | 235 | 4.0 | 6.0 | 0.00 | 0.00 | 0.00 | 55 | 1011.0 |
| 20260505015458 | 63 | 223 | 5.0 | 7.0 | 0.00 | 0.00 | 0.00 | 56 | 1011.2 |
| 20260505014954 | 63 | 208 | 4.0 | 6.0 | 0.00 | 0.00 | 0.00 | 56 | 1011.1 |
| 20260505014451 | 63 | 227 | 3.0 | 7.0 | 0.00 | 0.00 | 0.00 | 56 | 1011.0 |
| 20260505013949 | 63 | 172 | 6.0 | 8.0 | 0.00 | 0.00 | 0.00 | 55 | 1010.9 |
| 20260505013445 | 63 | 225 | 3.0 | 5.0 | 0.00 | 0.00 | 0.00 | 56 | 1010.9 |
| 20260505012943 | 63 | 261 | 2.0 | 5.0 | 0.00 | 0.00 | 0.00 | 56 | 1011.4 |
| 20260505012441 | 64 | 245 | 1.0 | 9.0 | 0.00 | 0.00 | 0.00 | 56 | 1011.2 |
| 20260505011937 | 64 | 231 | 2.0 | 5.0 | 0.00 | 0.00 | 0.00 | 55 | 1011.3 |
| 20260505011433 | 64 | 223 | 2.0 | 6.0 | 0.00 | 0.00 | 0.00 | 55 | 1011.0 |
| 20260505010930 | 64 | 226 | 3.0 | 5.0 | 0.00 | 0.00 | 0.00 | 54 | 1011.0 |
| 20260505010426 | 64 | 260 | 1.0 | 5.0 | 0.00 | 0.00 | 0.00 | 55 | 1010.9 |
| 20260505005922 | 65 | 248 | 1.0 | 8.0 | 0.00 | 0.00 | 0.00 | 54 | 1010.6 |
| 20260505005419 | 65 | 177 | 4.0 | 6.0 | 0.00 | 0.00 | 0.00 | 53 | 1010.7 |
| 20260505004917 | 65 | 232 | 3.0 | 6.0 | 0.00 | 0.00 | 0.00 | 52 | 1010.8 |
| 20260505004413 | 66 | 257 | 2.0 | 5.0 | 0.00 | 0.00 | 0.00 | 52 | 1010.6 |
| 20260505003910 | 66 | 203 | 2.0 | 8.0 | 0.00 | 0.00 | 0.00 | 52 | 1010.7 |
| 20260505003407 | 66 | 262 | 3.0 | 8.0 | 0.00 | 0.00 | 0.00 | 52 | 1010.7 |
| 20260505002904 | 66 | 211 | 1.0 | 6.0 | 0.00 | 0.00 | 0.00 | 52 | 1010.6 |
| 20260505002400 | 66 | 172 | 3.0 | 5.0 | 0.00 | 0.00 | 0.00 | 51 | 1010.6 |
| 20260505001859 | 67 | 246 | 2.0 | 6.0 | 0.00 | 0.00 | 0.00 | 50 | 1010.5 |
| 20260505001355 | 67 | 221 | 5.0 | 7.0 | 0.00 | 0.00 | 0.00 | 49 | 1010.6 |
| 20260505000853 | 68 | 227 | 1.0 | 5.0 | 0.00 | 0.00 | 0.00 | 48 | 1010.4 |
| 20260505000351 | 69 | 235 | 1.0 | 5.0 | 0.00 | 0.00 | 0.00 | 47 | 1010.6 |
| 20260504235847 | 69 | 261 | 1.0 | 5.0 | 0.00 | 0.00 | 0.00 | 47 | 1010.3 |
| 20260504235344 | 70 | 200 | 3.0 | 8.0 | 0.00 | 0.00 | 0.00 | 45 | 1010.5 |
| 20260504234840 | 70 | 240 | 2.0 | 5.0 | 0.00 | 0.00 | 0.00 | 45 | 1010.4 |
| 20260504234338 | 71 | 225 | 5.0 | 11.0 | 0.00 | 0.00 | 0.00 | 43 | 1010.2 |
| 20260504233835 | 71 | 233 | 6.0 | 8.0 | 0.00 | 0.00 | 0.00 | 43 | 1010.5 |
| 20260504233330 | 71 | 242 | 6.0 | 9.0 | 0.00 | 0.00 | 0.00 | 42 | 1010.3 |
| 20260504232827 | 71 | 198 | 9.0 | 14.0 | 0.00 | 0.00 | 0.00 | 42 | 1010.3 |
| 20260504232324 | 72 | 253 | 7.0 | 10.0 | 0.00 | 0.00 | 0.00 | 42 | 1010.2 |
| 20260504231821 | 72 | 227 | 5.0 | 10.0 | 0.00 | 0.00 | 0.00 | 42 | 1010.3 |
| 20260504231318 | 72 | 249 | 5.0 | 11.0 | 0.00 | 0.00 | 0.00 | 42 | 1010.3 |
| 20260504230814 | 72 | 265 | 8.0 | 14.0 | 0.00 | 0.00 | 0.00 | 41 | 1010.3 |
| 20260504230312 | 72 | 276 | 4.0 | 10.0 | 0.00 | 0.00 | 0.00 | 42 | 1010.4 |
| 20260504225810 | 72 | 243 | 7.0 | 9.0 | 0.00 | 0.00 | 0.00 | 41 | 1010.3 |
| 20260504225306 | 72 | 277 | 7.0 | 14.0 | 0.00 | 0.00 | 0.00 | 41 | 1010.3 |
| 20260504224804 | 72 | 225 | 11.0 | 15.0 | 0.00 | 0.00 | 0.00 | 41 | 1010.4 |
| 20260504224301 | 72 | 235 | 7.0 | 16.0 | 0.00 | 0.00 | 0.00 | 40 | 1010.4 |
| 20260504223757 | 72 | 252 | 10.0 | 15.0 | 0.00 | 0.00 | 0.00 | 40 | 1010.3 |
| 20260504223253 | 73 | 223 | 9.0 | 16.0 | 0.00 | 0.00 | 0.00 | 41 | 1010.4 |
| 20260504222750 | 73 | 250 | 5.0 | 11.0 | 0.00 | 0.00 | 0.00 | 42 | 1010.5 |
| 20260504222246 | 73 | 275 | 9.0 | 11.0 | 0.00 | 0.00 | 0.00 | 40 | 1010.4 |
| 20260504221744 | 73 | 249 | 9.0 | 13.0 | 0.00 | 0.00 | 0.00 | 40 | 1010.4 |
| 20260504221241 | 73 | 258 | 9.0 | 18.0 | 0.00 | 0.00 | 0.00 | 40 | 1010.6 |
| 20260504220738 | 73 | 232 | 7.0 | 11.0 | 0.00 | 0.00 | 0.00 | 40 | 1010.5 |
| 20260504220235 | 73 | 204 | 6.0 | 11.0 | 0.00 | 0.00 | 0.00 | 41 | 1010.4 |
| 20260504215732 | 73 | 205 | 11.0 | 15.0 | 0.00 | 0.00 | 0.00 | 39 | 1010.4 |
| 20260504215229 | 74 | 244 | 9.0 | 11.0 | 0.00 | 0.00 | 0.00 | 39 | 1010.7 |
| 20260504214724 | 74 | 269 | 7.0 | 11.0 | 0.00 | 0.00 | 0.00 | 40 | 1010.5 |
| 20260504214216 | 73 | 243 | 9.0 | 15.0 | 0.00 | 0.00 | 0.00 | 39 | 1010.6 |
| 20260504213712 | 73 | 225 | 7.0 | 13.0 | 0.00 | 0.00 | 0.00 | 40 | 1010.7 |
| 20260504213209 | 73 | 243 | 9.0 | 16.0 | 0.00 | 0.00 | 0.00 | 40 | 1010.3 |
| 20260504212706 | 73 | 259 | 9.0 | 15.0 | 0.00 | 0.00 | 0.00 | 40 | 1010.5 |
| 20260504212203 | 73 | 199 | 8.0 | 11.0 | 0.00 | 0.00 | 0.00 | 41 | 1010.6 |
| 20260504211700 | 73 | 204 | 6.0 | 8.0 | 0.00 | 0.00 | 0.00 | 39 | 1010.4 |
| 20260504211156 | 73 | 216 | 6.0 | 11.0 | 0.00 | 0.00 | 0.00 | 41 | 1010.5 |
| 20260504210654 | 73 | 237 | 7.0 | 14.0 | 0.00 | 0.00 | 0.00 | 39 | 1010.5 |
| 20260504210150 | 73 | 238 | 9.0 | 10.0 | 0.00 | 0.00 | 0.00 | 41 | 1010.4 |
| 20260504205648 | 73 | 234 | 9.0 | 18.0 | 0.00 | 0.00 | 0.00 | 39 | 1010.4 |
| 20260504205145 | 73 | 230 | 8.0 | 16.0 | 0.00 | 0.00 | 0.00 | 41 | 1010.6 |
| 20260504204643 | 73 | 230 | 4.0 | 15.0 | 0.00 | 0.00 | 0.00 | 39 | 1010.5 |
| 20260504204142 | 72 | 281 | 8.0 | 11.0 | 0.00 | 0.00 | 0.00 | 40 | 1010.7 |
| 20260504203640 | 73 | 233 | 11.0 | 15.0 | 0.00 | 0.00 | 0.00 | 40 | 1010.7 |
| 20260504203137 | 73 | 258 | 11.0 | 18.0 | 0.00 | 0.00 | 0.00 | 40 | 1010.7 |
| 20260504202632 | 73 | 226 | 8.0 | 13.0 | 0.00 | 0.00 | 0.00 | 38 | 1010.6 |
| 20260504202129 | 73 | 249 | 6.0 | 11.0 | 0.00 | 0.00 | 0.00 | 39 | 1010.8 |
| 20260504201625 | 72 | 243 | 8.0 | 17.0 | 0.00 | 0.00 | 0.00 | 41 | 1010.9 |
| 20260504201124 | 73 | 210 | 9.0 | 10.0 | 0.00 | 0.00 | 0.00 | 39 | 1010.9 |
| 20260504200620 | 72 | 213 | 8.0 | 14.0 | 0.00 | 0.00 | 0.00 | 40 | 1010.9 |
| 20260504200117 | 72 | 257 | 8.0 | 14.0 | 0.00 | 0.00 | 0.00 | 42 | 1011.1 |
| 20260504195613 | 72 | 222 | 9.0 | 11.0 | 0.00 | 0.00 | 0.00 | 40 | 1011.2 |
| 20260504195109 | 72 | 230 | 7.0 | 15.0 | 0.00 | 0.00 | 0.00 | 40 | 1011.1 |
| 20260504194606 | 73 | 261 | 7.0 | 8.0 | 0.00 | 0.00 | 0.00 | 40 | 1011.5 |
| 20260504194102 | 72 | 224 | 8.0 | 11.0 | 0.00 | 0.00 | 0.00 | 40 | 1011.5 |
| 20260504193558 | 72 | 261 | 10.0 | 21.0 | 0.00 | 0.00 | 0.00 | 40 | 1011.6 |
| 20260504193057 | 72 | 238 | 3.0 | 18.0 | 0.00 | 0.00 | 0.00 | 41 | 1011.7 |
| 20260504192555 | 72 | 254 | 11.0 | 20.0 | 0.00 | 0.00 | 0.00 | 41 | 1011.7 |
| 20260504192052 | 71 | 227 | 5.0 | 16.0 | 0.00 | 0.00 | 0.00 | 42 | 1011.6 |
| 20260504191550 | 72 | 236 | 6.0 | 15.0 | 0.00 | 0.00 | 0.00 | 41 | 1012.1 |
| 20260504191046 | 71 | 254 | 10.0 | 13.0 | 0.00 | 0.00 | 0.00 | 40 | 1011.8 |
| 20260504190543 | 72 | 243 | 9.0 | 14.0 | 0.00 | 0.00 | 0.00 | 41 | 1012.1 |
| 20260504190039 | 72 | 237 | 9.0 | 10.0 | 0.00 | 0.00 | 0.00 | 43 | 1012.3 |
| 20260504185536 | 71 | 223 | 12.0 | 15.0 | 0.00 | 0.00 | 0.00 | 41 | 1012.3 |
| 20260504185033 | 71 | 244 | 10.0 | 18.0 | 0.00 | 0.00 | 0.00 | 43 | 1012.3 |
| 20260504184528 | 71 | 245 | 8.0 | 10.0 | 0.00 | 0.00 | 0.00 | 44 | 1012.1 |
| 20260504184023 | 71 | 222 | 9.0 | 13.0 | 0.00 | 0.00 | 0.00 | 40 | 1012.4 |
| 20260504183521 | 71 | 223 | 7.0 | 9.0 | 0.00 | 0.00 | 0.00 | 43 | 1012.4 |
| 20260504183019 | 71 | 223 | 5.0 | 14.0 | 0.00 | 0.00 | 0.00 | 41 | 1012.5 |
| 20260504182515 | 71 | 271 | 6.0 | 13.0 | 0.00 | 0.00 | 0.00 | 40 | 1012.5 |
| 20260504182013 | 71 | 233 | 6.0 | 10.0 | 0.00 | 0.00 | 0.00 | 42 | 1012.5 |
| 20260504181510 | 70 | 228 | 6.0 | 10.0 | 0.00 | 0.00 | 0.00 | 41 | 1012.8 |
| 20260504181009 | 70 | 240 | 10.0 | 14.0 | 0.00 | 0.00 | 0.00 | 43 | 1012.7 |
| 20260504180507 | 70 | 174 | 6.0 | 16.0 | 0.00 | 0.00 | 0.00 | 44 | 1012.8 |
| 20260504180005 | 70 | 236 | 8.0 | 15.0 | 0.00 | 0.00 | 0.00 | 42 | 1013.0 |
| 20260504175502 | 70 | 230 | 7.0 | 14.0 | 0.00 | 0.00 | 0.00 | 41 | 1013.0 |
| 20260504174959 | 69 | 330 | 7.0 | 13.0 | 0.00 | 0.00 | 0.00 | 42 | 1013.2 |
| 20260504174457 | 69 | 219 | 11.0 | 14.0 | 0.00 | 0.00 | 0.00 | 42 | 1013.1 |
| 20260504173954 | 70 | 204 | 7.0 | 11.0 | 0.00 | 0.00 | 0.00 | 43 | 1013.2 |
| 20260504173450 | 69 | 245 | 9.0 | 16.0 | 0.00 | 0.00 | 0.00 | 42 | 1013.1 |
| 20260504172948 | 69 | 219 | 9.0 | 13.0 | 0.00 | 0.00 | 0.00 | 41 | 1013.3 |
| 20260504172443 | 69 | 240 | 11.0 | 15.0 | 0.00 | 0.00 | 0.00 | 42 | 1013.4 |
| 20260504171940 | 68 | 230 | 3.0 | 9.0 | 0.00 | 0.00 | 0.00 | 46 | 1013.3 |
| 20260504171437 | 69 | 237 | 5.0 | 11.0 | 0.00 | 0.00 | 0.00 | 42 | 1013.7 |
| 20260504170934 | 68 | 212 | 9.0 | 10.0 | 0.00 | 0.00 | 0.00 | 41 | 1013.4 |
| 20260504170430 | 68 | 335 | 5.0 | 10.0 | 0.00 | 0.00 | 0.00 | 43 | 1013.6 |
| 20260504160349 | 66 | 246 | 11.0 | 15.0 | 0.00 | 0.00 | 0.00 | 42 | 1014.7 |
| 20260504150814 | 64 | 227 | 6.0 | 11.0 | 0.00 | 0.00 | 0.00 | 45 | 1015.1 |
| 20260504150311 | 64 | 297 | 6.0 | 10.0 | 0.00 | 0.00 | 0.00 | 45 | 1015.1 |
| 20260504141241 | 59 | 257 | 4.0 | 7.0 | 0.00 | 0.00 | 0.00 | 49 | 1015.6 |
| 20260504140737 | 59 | 240 | 5.0 | 8.0 | 0.00 | 0.00 | 0.00 | 49 | 1015.7 |
| 20260504140233 | 59 | 233 | 6.0 | 7.0 | 0.00 | 0.00 | 0.00 | 49 | 1015.7 |
| 20260504130702 | 55 | 251 | 3.0 | 3.0 | 0.00 | 0.00 | 0.00 | 54 | 1016.2 |
| 20260504130158 | 56 | 249 | 0.0 | 5.0 | 0.00 | 0.00 | 0.00 | 54 | 1016.1 |
| 20260504120122 | 51 | 253 | 0.0 | 0.0 | 0.00 | 0.00 | 0.00 | 56 | 1016.1 |
| 20260504110549 | 42 | 267 | 0.0 | 0.0 | 0.00 | 0.00 | 0.00 | 75 | 1016.2 |
| 20260504100511 | 39 | 267 | 0.0 | 0.0 | 0.00 | 0.00 | 0.00 | 80 | 1016.1 |
| 20260504081904 | 43 | 266 | 0.0 | 0.0 | 0.00 | 0.00 | 0.00 | 68 | 1016.6 |
| 20260504081401 | 43 | 266 | 0.0 | 0.0 | 0.00 | 0.00 | 0.00 | 68 | 1016.5 |
| 20260504080856 | 43 | 266 | 0.0 | 0.0 | 0.00 | 0.00 | 0.00 | 68 | 1016.4 |
| 20260504080354 | 43 | 266 | 0.0 | 0.0 | 0.00 | 0.00 | 0.00 | 68 | 1016.3 |
| 20260504070321 | 45 | 263 | 0.0 | 1.0 | 0.00 | 0.00 | 0.00 | 66 | 1016.5 |